LEDSAT
1 49069U 21073D   21329.65741093  .00000730  00000-0  52194-4 0  9998
2 49069  97.5487  41.5641 0026459 271.8620  87.9578 15.07328446 15126
CUTE
1 49263U 21088D   21329.44349634  .00000715  00000-0  59346-4 0  9991
2 49263  97.6177  36.4096 0019774  50.7230 309.5745 15.01746110  8799
Binar-1
1 49272U 98067SR  21329.72705362  .00012418  00000-0  21443-3 0  9996
2 49272  51.6414 263.2908 0003203 278.7726  81.2901 15.51396114  7907
Maya-3
1 49273U 98067SS  21329.52950151  .00015407  00000-0  26131-3 0  9993
2 49273  51.6413 264.2215 0002800 271.8068  88.2601 15.51695039  7872
Maya-4
1 49274U 98067ST  21329.53086941  .00015313  00000-0  26023-3 0  9998
2 49274  51.6410 264.2306 0002758 270.4221  89.6452 15.51645037  7871
CUAVA-1
1 49275U 98067SU  21329.85569935  .00016360  00000-0  27683-3 0  9999
2 49275  51.6429 262.5761 0002687 287.0597 104.5355 15.51708403  7875
TeikyoSat 4
1 49396U 21102B   21329.82058672 -.00000261  00000-0 -16213-4 0  9990
2 49396  97.5618  28.9055 0013413 212.1063 147.9338 15.00255237  2518
Z-Sat
1 49399U 21102E   21329.82807941 -.00000075  00000-0 -11722-5 0  9998
2 49399  97.5624  28.9567 0018829 195.2574 305.5819 15.01925569  2519
KOSEN 1
1 49402U 21102H   21329.75264348  .00000900  00000-0  71370-4 0  9992
2 49402  97.5583  28.8880 0022141 190.8856 314.7593 15.02813560  2509
